Zurück zum Katalog

STARLINK-30883

AktivKommunikationVLEO
NORAD 58252·PAYLOAD·🇺🇸 United States

Gestartet Nov 8, 2023 von Cape Canaveral Space Force Station

Loading…

Nächste Überflüge (nächste 24 Stunden)

TLE

AktuellSource: CelesTrak SupGP

Epoche: Sep 14, 2026, 20:51 UTC

1 58252C 23171Y   26257.86923611 -.00053236  00000+0 -19282-2 0  2575
2 58252  43.0034 296.6583 0001792 268.2195 290.6437 15.27604052    13

Verfolge STARLINK-30883 in Echtzeit mit AllMySat

Download on the App Store